Index of /20260508/WXO-DD/model_gdps/15km/12/024
Name Last modified Size Description
Parent Directory -
20260508T12Z_MSC_GDPS_AbsoluteVorticity_IsbL-0200_LatLon0.15_PT024H.grib2 2026-05-08 16:03 1.5M
20260508T12Z_MSC_GDPS_AbsoluteVorticity_IsbL-0250_LatLon0.15_PT024H.grib2 2026-05-08 16:03 1.3M
20260508T12Z_MSC_GDPS_AbsoluteVorticity_IsbL-0500_LatLon0.15_PT024H.grib2 2026-05-08 16:03 1.5M
20260508T12Z_MSC_GDPS_AbsoluteVorticity_IsbL-0700_LatLon0.15_PT024H.grib2 2026-05-08 16:03 1.3M
20260508T12Z_MSC_GDPS_AbsoluteVorticity_IsbL-0850_LatLon0.15_PT024H.grib2 2026-05-08 16:03 1.6M
20260508T12Z_MSC_GDPS_AirTemp-Max_AGL-2m_LatLon0.15_PT024H.grib2 2026-05-08 16:03 730K
20260508T12Z_MSC_GDPS_AirTemp-Min_AGL-2m_LatLon0.15_PT024H.grib2 2026-05-08 16:03 786K
20260508T12Z_MSC_GDPS_AirTemp_AGL-120m_LatLon0.15_PT024H.grib2 2026-05-08 16:03 902K
20260508T12Z_MSC_GDPS_AirTemp_AGL-2m_LatLon0.15_PT024H.grib2 2026-05-08 16:03 1.0M
20260508T12Z_MSC_GDPS_AirTemp_AGL-40m_LatLon0.15_PT024H.grib2 2026-05-08 16:03 802K
20260508T12Z_MSC_GDPS_AirTemp_AGL-80m_LatLon0.15_PT024H.grib2 2026-05-08 16:03 791K
20260508T12Z_MSC_GDPS_AirTemp_IsbL-0001_LatLon0.15_PT024H.grib2 2026-05-08 16:03 670K
20260508T12Z_MSC_GDPS_AirTemp_IsbL-0005_LatLon0.15_PT024H.grib2 2026-05-08 16:03 540K
20260508T12Z_MSC_GDPS_AirTemp_IsbL-0010_LatLon0.15_PT024H.grib2 2026-05-08 16:03 709K
20260508T12Z_MSC_GDPS_AirTemp_IsbL-0020_LatLon0.15_PT024H.grib2 2026-05-08 16:03 722K
20260508T12Z_MSC_GDPS_AirTemp_IsbL-0030_LatLon0.15_PT024H.grib2 2026-05-08 16:03 847K
20260508T12Z_MSC_GDPS_AirTemp_IsbL-0050_LatLon0.15_PT024H.grib2 2026-05-08 16:03 894K
20260508T12Z_MSC_GDPS_AirTemp_IsbL-0100_LatLon0.15_PT024H.grib2 2026-05-08 16:03 966K
20260508T12Z_MSC_GDPS_AirTemp_IsbL-0150_LatLon0.15_PT024H.grib2 2026-05-08 16:03 1.0M
20260508T12Z_MSC_GDPS_AirTemp_IsbL-0175_LatLon0.15_PT024H.grib2 2026-05-08 16:03 973K
20260508T12Z_MSC_GDPS_AirTemp_IsbL-0200_LatLon0.15_PT024H.grib2 2026-05-08 16:03 1.0M
20260508T12Z_MSC_GDPS_AirTemp_IsbL-0225_LatLon0.15_PT024H.grib2 2026-05-08 16:03 1.0M
20260508T12Z_MSC_GDPS_AirTemp_IsbL-0250_LatLon0.15_PT024H.grib2 2026-05-08 16:03 1.0M
20260508T12Z_MSC_GDPS_AirTemp_IsbL-0275_LatLon0.15_PT024H.grib2 2026-05-08 16:03 1.0M
20260508T12Z_MSC_GDPS_AirTemp_IsbL-0300_LatLon0.15_PT024H.grib2 2026-05-08 16:03 1.0M
20260508T12Z_MSC_GDPS_AirTemp_IsbL-0350_LatLon0.15_PT024H.grib2 2026-05-08 16:03 943K
20260508T12Z_MSC_GDPS_AirTemp_IsbL-0400_LatLon0.15_PT024H.grib2 2026-05-08 16:03 953K
20260508T12Z_MSC_GDPS_AirTemp_IsbL-0450_LatLon0.15_PT024H.grib2 2026-05-08 16:03 1.0M
20260508T12Z_MSC_GDPS_AirTemp_IsbL-0500_LatLon0.15_PT024H.grib2 2026-05-08 16:03 1.0M
20260508T12Z_MSC_GDPS_AirTemp_IsbL-0550_LatLon0.15_PT024H.grib2 2026-05-08 16:03 809K
20260508T12Z_MSC_GDPS_AirTemp_IsbL-0600_LatLon0.15_PT024H.grib2 2026-05-08 16:03 900K
20260508T12Z_MSC_GDPS_AirTemp_IsbL-0650_LatLon0.15_PT024H.grib2 2026-05-08 16:03 927K
20260508T12Z_MSC_GDPS_AirTemp_IsbL-0700_LatLon0.15_PT024H.grib2 2026-05-08 16:03 960K
20260508T12Z_MSC_GDPS_AirTemp_IsbL-0750_LatLon0.15_PT024H.grib2 2026-05-08 16:03 1.0M
20260508T12Z_MSC_GDPS_AirTemp_IsbL-0800_LatLon0.15_PT024H.grib2 2026-05-08 16:03 1.1M
20260508T12Z_MSC_GDPS_AirTemp_IsbL-0850_LatLon0.15_PT024H.grib2 2026-05-08 16:03 1.1M
20260508T12Z_MSC_GDPS_AirTemp_IsbL-0875_LatLon0.15_PT024H.grib2 2026-05-08 16:03 1.2M
20260508T12Z_MSC_GDPS_AirTemp_IsbL-0900_LatLon0.15_PT024H.grib2 2026-05-08 16:03 1.1M
20260508T12Z_MSC_GDPS_AirTemp_IsbL-0925_LatLon0.15_PT024H.grib2 2026-05-08 16:03 1.1M
20260508T12Z_MSC_GDPS_AirTemp_IsbL-0950_LatLon0.15_PT024H.grib2 2026-05-08 16:03 1.1M
20260508T12Z_MSC_GDPS_AirTemp_IsbL-0970_LatLon0.15_PT024H.grib2 2026-05-08 16:03 1.1M
20260508T12Z_MSC_GDPS_AirTemp_IsbL-0985_LatLon0.15_PT024H.grib2 2026-05-08 16:03 1.1M
20260508T12Z_MSC_GDPS_AirTemp_IsbL-1000_LatLon0.15_PT024H.grib2 2026-05-08 16:03 1.1M
20260508T12Z_MSC_GDPS_AirTemp_IsbL-1015_LatLon0.15_PT024H.grib2 2026-05-08 16:03 1.1M
20260508T12Z_MSC_GDPS_Albedo_Sfc_LatLon0.15_PT024H.grib2 2026-05-08 16:03 240K
20260508T12Z_MSC_GDPS_CAPE_Sfc_LatLon0.15_PT024H.grib2 2026-05-08 16:03 3.8M
20260508T12Z_MSC_GDPS_CIN_Sfc_LatLon0.15_PT024H.grib2 2026-05-08 16:03 2.9M
20260508T12Z_MSC_GDPS_CloudWater_EAtm_LatLon0.15_PT024H.grib2 2026-05-08 16:03 540K
20260508T12Z_MSC_GDPS_ConvectivePrecip-Accum_Sfc_LatLon0.15_PT024H.grib2 2026-05-08 16:03 2.4M
20260508T12Z_MSC_GDPS_DewPointDepression_AGL-2m_LatLon0.15_PT024H.grib2 2026-05-08 16:03 757K
20260508T12Z_MSC_GDPS_DewPointDepression_IsbL-0010_LatLon0.15_PT024H.grib2 2026-05-08 16:03 71K
20260508T12Z_MSC_GDPS_DewPointDepression_IsbL-0020_LatLon0.15_PT024H.grib2 2026-05-08 16:03 92K
20260508T12Z_MSC_GDPS_DewPointDepression_IsbL-0030_LatLon0.15_PT024H.grib2 2026-05-08 16:03 99K
20260508T12Z_MSC_GDPS_DewPointDepression_IsbL-0050_LatLon0.15_PT024H.grib2 2026-05-08 16:03 389K
20260508T12Z_MSC_GDPS_DewPointDepression_IsbL-0100_LatLon0.15_PT024H.grib2 2026-05-08 16:03 405K
20260508T12Z_MSC_GDPS_DewPointDepression_IsbL-0150_LatLon0.15_PT024H.grib2 2026-05-08 16:03 506K
20260508T12Z_MSC_GDPS_DewPointDepression_IsbL-0175_LatLon0.15_PT024H.grib2 2026-05-08 16:03 611K
20260508T12Z_MSC_GDPS_DewPointDepression_IsbL-0200_LatLon0.15_PT024H.grib2 2026-05-08 16:03 704K
20260508T12Z_MSC_GDPS_DewPointDepression_IsbL-0225_LatLon0.15_PT024H.grib2 2026-05-08 16:03 798K
20260508T12Z_MSC_GDPS_DewPointDepression_IsbL-0250_LatLon0.15_PT024H.grib2 2026-05-08 16:03 906K
20260508T12Z_MSC_GDPS_DewPointDepression_IsbL-0275_LatLon0.15_PT024H.grib2 2026-05-08 16:03 930K
20260508T12Z_MSC_GDPS_DewPointDepression_IsbL-0300_LatLon0.15_PT024H.grib2 2026-05-08 16:03 964K
20260508T12Z_MSC_GDPS_DewPointDepression_IsbL-0350_LatLon0.15_PT024H.grib2 2026-05-08 16:03 1.0M
20260508T12Z_MSC_GDPS_DewPointDepression_IsbL-0400_LatLon0.15_PT024H.grib2 2026-05-08 16:03 1.0M
20260508T12Z_MSC_GDPS_DewPointDepression_IsbL-0450_LatLon0.15_PT024H.grib2 2026-05-08 16:03 1.0M
20260508T12Z_MSC_GDPS_DewPointDepression_IsbL-0500_LatLon0.15_PT024H.grib2 2026-05-08 16:03 1.0M
20260508T12Z_MSC_GDPS_DewPointDepression_IsbL-0550_LatLon0.15_PT024H.grib2 2026-05-08 16:03 1.0M
20260508T12Z_MSC_GDPS_DewPointDepression_IsbL-0600_LatLon0.15_PT024H.grib2 2026-05-08 16:03 1.0M
20260508T12Z_MSC_GDPS_DewPointDepression_IsbL-0650_LatLon0.15_PT024H.grib2 2026-05-08 16:03 1.1M
20260508T12Z_MSC_GDPS_DewPointDepression_IsbL-0700_LatLon0.15_PT024H.grib2 2026-05-08 16:03 1.1M
20260508T12Z_MSC_GDPS_DewPointDepression_IsbL-0750_LatLon0.15_PT024H.grib2 2026-05-08 16:03 1.1M
20260508T12Z_MSC_GDPS_DewPointDepression_IsbL-0800_LatLon0.15_PT024H.grib2 2026-05-08 16:03 1.1M
20260508T12Z_MSC_GDPS_DewPointDepression_IsbL-0850_LatLon0.15_PT024H.grib2 2026-05-08 16:03 1.1M
20260508T12Z_MSC_GDPS_DewPointDepression_IsbL-0875_LatLon0.15_PT024H.grib2 2026-05-08 16:03 1.1M
20260508T12Z_MSC_GDPS_DewPointDepression_IsbL-0900_LatLon0.15_PT024H.grib2 2026-05-08 16:03 1.1M
20260508T12Z_MSC_GDPS_DewPointDepression_IsbL-0925_LatLon0.15_PT024H.grib2 2026-05-08 16:03 1.0M
20260508T12Z_MSC_GDPS_DewPointDepression_IsbL-0950_LatLon0.15_PT024H.grib2 2026-05-08 16:03 1.0M
20260508T12Z_MSC_GDPS_DewPointDepression_IsbL-0970_LatLon0.15_PT024H.grib2 2026-05-08 16:03 1.0M
20260508T12Z_MSC_GDPS_DewPointDepression_IsbL-0985_LatLon0.15_PT024H.grib2 2026-05-08 16:03 970K
20260508T12Z_MSC_GDPS_DewPointDepression_IsbL-1000_LatLon0.15_PT024H.grib2 2026-05-08 16:03 957K
20260508T12Z_MSC_GDPS_DewPointDepression_IsbL-1015_LatLon0.15_PT024H.grib2 2026-05-08 16:03 902K
20260508T12Z_MSC_GDPS_DewPoint_AGL-2m_LatLon0.15_PT024H.grib2 2026-05-08 16:03 607K
20260508T12Z_MSC_GDPS_DownwardLongwaveRadiationFlux-Accum_Sfc_LatLon0.15_PT024H.grib2 2026-05-08 16:03 1.0M
20260508T12Z_MSC_GDPS_DownwardShortwaveRadiationFlux-Accum_NTAtm_LatLon0.15_PT024H.grib2 2026-05-08 16:03 227K
20260508T12Z_MSC_GDPS_DownwardShortwaveRadiationFlux-Accum_Sfc_LatLon0.15_PT024H.grib2 2026-05-08 16:03 1.2M
20260508T12Z_MSC_GDPS_FreezingRain-Accum12h_Sfc_LatLon0.15_PT024H.grib2 2026-05-08 16:03 96K
20260508T12Z_MSC_GDPS_FreezingRain-Accum1h_Sfc_LatLon0.15_PT024H.grib2 2026-05-08 16:03 43K
20260508T12Z_MSC_GDPS_FreezingRain-Accum24h_Sfc_LatLon0.15_PT024H.grib2 2026-05-08 16:03 134K
20260508T12Z_MSC_GDPS_FreezingRain-Accum3h_Sfc_LatLon0.15_PT024H.grib2 2026-05-08 16:03 53K
20260508T12Z_MSC_GDPS_FreezingRain-Accum6h_Sfc_LatLon0.15_PT024H.grib2 2026-05-08 16:03 86K
20260508T12Z_MSC_GDPS_FreezingRain-Accum_Sfc_LatLon0.15_PT024H.grib2 2026-05-08 16:03 162K
20260508T12Z_MSC_GDPS_GeopotentialHeight_IsbL-0001_LatLon0.15_PT024H.grib2 2026-05-08 16:03 438K
20260508T12Z_MSC_GDPS_GeopotentialHeight_IsbL-0005_LatLon0.15_PT024H.grib2 2026-05-08 16:03 492K
20260508T12Z_MSC_GDPS_GeopotentialHeight_IsbL-0010_LatLon0.15_PT024H.grib2 2026-05-08 16:03 481K
20260508T12Z_MSC_GDPS_GeopotentialHeight_IsbL-0020_LatLon0.15_PT024H.grib2 2026-05-08 16:03 421K
20260508T12Z_MSC_GDPS_GeopotentialHeight_IsbL-0030_LatLon0.15_PT024H.grib2 2026-05-08 16:03 426K
20260508T12Z_MSC_GDPS_GeopotentialHeight_IsbL-0050_LatLon0.15_PT024H.grib2 2026-05-08 16:03 584K
20260508T12Z_MSC_GDPS_GeopotentialHeight_IsbL-0100_LatLon0.15_PT024H.grib2 2026-05-08 16:03 618K
20260508T12Z_MSC_GDPS_GeopotentialHeight_IsbL-0150_LatLon0.15_PT024H.grib2 2026-05-08 16:03 637K
20260508T12Z_MSC_GDPS_GeopotentialHeight_IsbL-0175_LatLon0.15_PT024H.grib2 2026-05-08 16:03 640K
20260508T12Z_MSC_GDPS_GeopotentialHeight_IsbL-0200_LatLon0.15_PT024H.grib2 2026-05-08 16:03 645K
20260508T12Z_MSC_GDPS_GeopotentialHeight_IsbL-0225_LatLon0.15_PT024H.grib2 2026-05-08 16:03 646K
20260508T12Z_MSC_GDPS_GeopotentialHeight_IsbL-0250_LatLon0.15_PT024H.grib2 2026-05-08 16:03 646K
20260508T12Z_MSC_GDPS_GeopotentialHeight_IsbL-0275_LatLon0.15_PT024H.grib2 2026-05-08 16:03 648K
20260508T12Z_MSC_GDPS_GeopotentialHeight_IsbL-0300_LatLon0.15_PT024H.grib2 2026-05-08 16:03 641K
20260508T12Z_MSC_GDPS_GeopotentialHeight_IsbL-0350_LatLon0.15_PT024H.grib2 2026-05-08 16:03 639K
20260508T12Z_MSC_GDPS_GeopotentialHeight_IsbL-0400_LatLon0.15_PT024H.grib2 2026-05-08 16:03 630K
20260508T12Z_MSC_GDPS_GeopotentialHeight_IsbL-0450_LatLon0.15_PT024H.grib2 2026-05-08 16:03 620K
20260508T12Z_MSC_GDPS_GeopotentialHeight_IsbL-0500_LatLon0.15_PT024H.grib2 2026-05-08 16:03 539K
20260508T12Z_MSC_GDPS_GeopotentialHeight_IsbL-0550_LatLon0.15_PT024H.grib2 2026-05-08 16:03 535K
20260508T12Z_MSC_GDPS_GeopotentialHeight_IsbL-0600_LatLon0.15_PT024H.grib2 2026-05-08 16:03 530K
20260508T12Z_MSC_GDPS_GeopotentialHeight_IsbL-0650_LatLon0.15_PT024H.grib2 2026-05-08 16:03 530K
20260508T12Z_MSC_GDPS_GeopotentialHeight_IsbL-0700_LatLon0.15_PT024H.grib2 2026-05-08 16:03 701K
20260508T12Z_MSC_GDPS_GeopotentialHeight_IsbL-0750_LatLon0.15_PT024H.grib2 2026-05-08 16:03 706K
20260508T12Z_MSC_GDPS_GeopotentialHeight_IsbL-0800_LatLon0.15_PT024H.grib2 2026-05-08 16:03 716K
20260508T12Z_MSC_GDPS_GeopotentialHeight_IsbL-0850_LatLon0.15_PT024H.grib2 2026-05-08 16:03 724K
20260508T12Z_MSC_GDPS_GeopotentialHeight_IsbL-0875_LatLon0.15_PT024H.grib2 2026-05-08 16:03 727K
20260508T12Z_MSC_GDPS_GeopotentialHeight_IsbL-0900_LatLon0.15_PT024H.grib2 2026-05-08 16:03 732K
20260508T12Z_MSC_GDPS_GeopotentialHeight_IsbL-0925_LatLon0.15_PT024H.grib2 2026-05-08 16:03 735K
20260508T12Z_MSC_GDPS_GeopotentialHeight_IsbL-0950_LatLon0.15_PT024H.grib2 2026-05-08 16:03 746K
20260508T12Z_MSC_GDPS_GeopotentialHeight_IsbL-0970_LatLon0.15_PT024H.grib2 2026-05-08 16:03 757K
20260508T12Z_MSC_GDPS_GeopotentialHeight_IsbL-0985_LatLon0.15_PT024H.grib2 2026-05-08 16:03 772K
20260508T12Z_MSC_GDPS_GeopotentialHeight_IsbL-1000_LatLon0.15_PT024H.grib2 2026-05-08 16:03 792K
20260508T12Z_MSC_GDPS_GeopotentialHeight_IsbL-1015_LatLon0.15_PT024H.grib2 2026-05-08 16:03 814K
20260508T12Z_MSC_GDPS_Humidex_Sfc_LatLon0.15_PT024H.grib2 2026-05-08 16:03 5.3M
20260508T12Z_MSC_GDPS_IcePellets-Accum12h_Sfc_LatLon0.15_PT024H.grib2 2026-05-08 16:03 33K
20260508T12Z_MSC_GDPS_IcePellets-Accum1h_Sfc_LatLon0.15_PT024H.grib2 2026-05-08 16:03 18K
20260508T12Z_MSC_GDPS_IcePellets-Accum24h_Sfc_LatLon0.15_PT024H.grib2 2026-05-08 16:03 41K
20260508T12Z_MSC_GDPS_IcePellets-Accum3h_Sfc_LatLon0.15_PT024H.grib2 2026-05-08 16:03 20K
20260508T12Z_MSC_GDPS_IcePellets-Accum6h_Sfc_LatLon0.15_PT024H.grib2 2026-05-08 16:03 27K
20260508T12Z_MSC_GDPS_IcePellets-Accum_Sfc_LatLon0.15_PT024H.grib2 2026-05-08 16:03 46K
20260508T12Z_MSC_GDPS_KIndex_Sfc_LatLon0.15_PT024H.grib2 2026-05-08 16:03 6.5M
20260508T12Z_MSC_GDPS_LatentHeatNetFlux_Sfc_LatLon0.15_PT024H.grib2 2026-05-08 16:03 566K
20260508T12Z_MSC_GDPS_LiftedIndex-MU-VT_IsbL-0500_LatLon0.15_PT024H.grib2 2026-05-08 16:03 5.4M
20260508T12Z_MSC_GDPS_NetLongwaveRadiationFlux-Accum_Sfc_LatLon0.15_PT024H.grib2 2026-05-08 16:03 1.2M
20260508T12Z_MSC_GDPS_NetShortwaveRadiationFlux-Accum_Sfc_LatLon0.15_PT024H.grib2 2026-05-08 16:03 1.1M
20260508T12Z_MSC_GDPS_O3MixingRatio_Sfc_LatLon0.15_PT024H.grib2 2026-05-08 16:50 2.0M
20260508T12Z_MSC_GDPS_O3_EAtm_LatLon0.15_PT024H.grib2 2026-05-08 16:50 2.5M
20260508T12Z_MSC_GDPS_PlanetaryBoundaryLayerHeight_Sfc_LatLon0.15_PT024H.grib2 2026-05-08 16:03 2.5M
20260508T12Z_MSC_GDPS_Precip-Accum12h_Sfc_LatLon0.15_PT024H.grib2 2026-05-08 16:03 4.1M
20260508T12Z_MSC_GDPS_Precip-Accum1h_Sfc_LatLon0.15_PT024H.grib2 2026-05-08 16:03 3.3M
20260508T12Z_MSC_GDPS_Precip-Accum24h_Sfc_LatLon0.15_PT024H.grib2 2026-05-08 16:03 4.3M
20260508T12Z_MSC_GDPS_Precip-Accum3h_Sfc_LatLon0.15_PT024H.grib2 2026-05-08 16:03 3.6M
20260508T12Z_MSC_GDPS_Precip-Accum6h_Sfc_LatLon0.15_PT024H.grib2 2026-05-08 16:03 3.9M
20260508T12Z_MSC_GDPS_Precip-Accum_Sfc_LatLon0.15_PT024H.grib2 2026-05-08 16:03 4.5M
20260508T12Z_MSC_GDPS_PrecipRate_Sfc_LatLon0.15_PT024H.grib2 2026-05-08 16:03 3.1M
20260508T12Z_MSC_GDPS_PrecipType-Instant_Sfc_LatLon0.15_PT024H.grib2 2026-05-08 16:03 1.6M
20260508T12Z_MSC_GDPS_Pressure_MSL_LatLon0.15_PT024H.grib2 2026-05-08 16:03 829K
20260508T12Z_MSC_GDPS_Pressure_PVU-1.5_LatLon0.15_PT024H.grib2 2026-05-08 16:03 5.8M
20260508T12Z_MSC_GDPS_Pressure_PVU-1_LatLon0.15_PT024H.grib2 2026-05-08 16:03 6.0M
20260508T12Z_MSC_GDPS_Pressure_PVU-2_LatLon0.15_PT024H.grib2 2026-05-08 16:03 5.6M
20260508T12Z_MSC_GDPS_Pressure_Sfc_LatLon0.15_PT024H.grib2 2026-05-08 16:03 1.1M
20260508T12Z_MSC_GDPS_RadiativeTemp_Sfc_LatLon0.15_PT024H.grib2 2026-05-08 16:03 493K
20260508T12Z_MSC_GDPS_Rain-Accum12h_Sfc_LatLon0.15_PT024H.grib2 2026-05-08 16:03 2.8M
20260508T12Z_MSC_GDPS_Rain-Accum1h_Sfc_LatLon0.15_PT024H.grib2 2026-05-08 16:03 1.7M
20260508T12Z_MSC_GDPS_Rain-Accum24h_Sfc_LatLon0.15_PT024H.grib2 2026-05-08 16:03 3.0M
20260508T12Z_MSC_GDPS_Rain-Accum3h_Sfc_LatLon0.15_PT024H.grib2 2026-05-08 16:03 1.9M
20260508T12Z_MSC_GDPS_Rain-Accum6h_Sfc_LatLon0.15_PT024H.grib2 2026-05-08 16:03 2.5M
20260508T12Z_MSC_GDPS_Rain-Accum_Sfc_LatLon0.15_PT024H.grib2 2026-05-08 16:03 3.3M
20260508T12Z_MSC_GDPS_RelativeHumidity_AGL-2m_LatLon0.15_PT024H.grib2 2026-05-08 16:03 1.0M
20260508T12Z_MSC_GDPS_RelativeHumidity_IsbL-0010_LatLon0.15_PT024H.grib2 2026-05-08 16:03 167K
20260508T12Z_MSC_GDPS_RelativeHumidity_IsbL-0020_LatLon0.15_PT024H.grib2 2026-05-08 16:03 182K
20260508T12Z_MSC_GDPS_RelativeHumidity_IsbL-0030_LatLon0.15_PT024H.grib2 2026-05-08 16:03 198K
20260508T12Z_MSC_GDPS_RelativeHumidity_IsbL-0050_LatLon0.15_PT024H.grib2 2026-05-08 16:03 347K
20260508T12Z_MSC_GDPS_RelativeHumidity_IsbL-0100_LatLon0.15_PT024H.grib2 2026-05-08 16:03 362K
20260508T12Z_MSC_GDPS_RelativeHumidity_IsbL-0150_LatLon0.15_PT024H.grib2 2026-05-08 16:03 691K
20260508T12Z_MSC_GDPS_RelativeHumidity_IsbL-0175_LatLon0.15_PT024H.grib2 2026-05-08 16:03 613K
20260508T12Z_MSC_GDPS_RelativeHumidity_IsbL-0200_LatLon0.15_PT024H.grib2 2026-05-08 16:03 717K
20260508T12Z_MSC_GDPS_RelativeHumidity_IsbL-0225_LatLon0.15_PT024H.grib2 2026-05-08 16:03 802K
20260508T12Z_MSC_GDPS_RelativeHumidity_IsbL-0250_LatLon0.15_PT024H.grib2 2026-05-08 16:03 883K
20260508T12Z_MSC_GDPS_RelativeHumidity_IsbL-0275_LatLon0.15_PT024H.grib2 2026-05-08 16:03 907K
20260508T12Z_MSC_GDPS_RelativeHumidity_IsbL-0300_LatLon0.15_PT024H.grib2 2026-05-08 16:03 941K
20260508T12Z_MSC_GDPS_RelativeHumidity_IsbL-0350_LatLon0.15_PT024H.grib2 2026-05-08 16:03 951K
20260508T12Z_MSC_GDPS_RelativeHumidity_IsbL-0400_LatLon0.15_PT024H.grib2 2026-05-08 16:03 968K
20260508T12Z_MSC_GDPS_RelativeHumidity_IsbL-0450_LatLon0.15_PT024H.grib2 2026-05-08 16:03 1.0M
20260508T12Z_MSC_GDPS_RelativeHumidity_IsbL-0500_LatLon0.15_PT024H.grib2 2026-05-08 16:03 1.0M
20260508T12Z_MSC_GDPS_RelativeHumidity_IsbL-0550_LatLon0.15_PT024H.grib2 2026-05-08 16:03 1.1M
20260508T12Z_MSC_GDPS_RelativeHumidity_IsbL-0600_LatLon0.15_PT024H.grib2 2026-05-08 16:03 1.1M
20260508T12Z_MSC_GDPS_RelativeHumidity_IsbL-0650_LatLon0.15_PT024H.grib2 2026-05-08 16:03 1.1M
20260508T12Z_MSC_GDPS_RelativeHumidity_IsbL-0700_LatLon0.15_PT024H.grib2 2026-05-08 16:03 1.1M
20260508T12Z_MSC_GDPS_RelativeHumidity_IsbL-0750_LatLon0.15_PT024H.grib2 2026-05-08 16:03 1.2M
20260508T12Z_MSC_GDPS_RelativeHumidity_IsbL-0800_LatLon0.15_PT024H.grib2 2026-05-08 16:03 1.2M
20260508T12Z_MSC_GDPS_RelativeHumidity_IsbL-0850_LatLon0.15_PT024H.grib2 2026-05-08 16:03 1.3M
20260508T12Z_MSC_GDPS_RelativeHumidity_IsbL-0875_LatLon0.15_PT024H.grib2 2026-05-08 16:03 1.2M
20260508T12Z_MSC_GDPS_RelativeHumidity_IsbL-0900_LatLon0.15_PT024H.grib2 2026-05-08 16:03 1.2M
20260508T12Z_MSC_GDPS_RelativeHumidity_IsbL-0925_LatLon0.15_PT024H.grib2 2026-05-08 16:03 1.2M
20260508T12Z_MSC_GDPS_RelativeHumidity_IsbL-0950_LatLon0.15_PT024H.grib2 2026-05-08 16:03 1.2M
20260508T12Z_MSC_GDPS_RelativeHumidity_IsbL-0970_LatLon0.15_PT024H.grib2 2026-05-08 16:03 1.2M
20260508T12Z_MSC_GDPS_RelativeHumidity_IsbL-0985_LatLon0.15_PT024H.grib2 2026-05-08 16:03 1.1M
20260508T12Z_MSC_GDPS_RelativeHumidity_IsbL-1000_LatLon0.15_PT024H.grib2 2026-05-08 16:03 1.1M
20260508T12Z_MSC_GDPS_RelativeHumidity_IsbL-1015_LatLon0.15_PT024H.grib2 2026-05-08 16:03 1.0M
20260508T12Z_MSC_GDPS_RelativeVorticity_IsbL-0200_LatLon0.15_PT024H.grib2 2026-05-08 16:03 1.5M
20260508T12Z_MSC_GDPS_RelativeVorticity_IsbL-0250_LatLon0.15_PT024H.grib2 2026-05-08 16:03 1.6M
20260508T12Z_MSC_GDPS_RelativeVorticity_IsbL-0500_LatLon0.15_PT024H.grib2 2026-05-08 16:03 1.5M
20260508T12Z_MSC_GDPS_RelativeVorticity_IsbL-0700_LatLon0.15_PT024H.grib2 2026-05-08 16:03 1.3M
20260508T12Z_MSC_GDPS_RelativeVorticity_IsbL-0850_LatLon0.15_PT024H.grib2 2026-05-08 16:03 1.6M
20260508T12Z_MSC_GDPS_Runoff-Accum_Sfc_LatLon0.15_PT024H.grib2 2026-05-08 16:03 84K
20260508T12Z_MSC_GDPS_SensibleHeatNetFlux_Sfc_LatLon0.15_PT024H.grib2 2026-05-08 16:03 497K
20260508T12Z_MSC_GDPS_ShowalterIndex_IsbL-0500_LatLon0.15_PT024H.grib2 2026-05-08 16:03 6.2M
20260508T12Z_MSC_GDPS_Snow-Accum12h_Sfc_LatLon0.15_PT024H.grib2 2026-05-08 16:03 1.4M
20260508T12Z_MSC_GDPS_Snow-Accum1h_Sfc_LatLon0.15_PT024H.grib2 2026-05-08 16:03 886K
20260508T12Z_MSC_GDPS_Snow-Accum24h_Sfc_LatLon0.15_PT024H.grib2 2026-05-08 16:03 1.6M
20260508T12Z_MSC_GDPS_Snow-Accum3h_Sfc_LatLon0.15_PT024H.grib2 2026-05-08 16:03 938K
20260508T12Z_MSC_GDPS_Snow-Accum6h_Sfc_LatLon0.15_PT024H.grib2 2026-05-08 16:03 1.2M
20260508T12Z_MSC_GDPS_Snow-Accum_Sfc_LatLon0.15_PT024H.grib2 2026-05-08 16:03 1.7M
20260508T12Z_MSC_GDPS_SnowDensity_Sfc_LatLon0.15_PT024H.grib2 2026-05-08 16:03 248K
20260508T12Z_MSC_GDPS_SnowDepth_Sfc_LatLon0.15_PT024H.grib2 2026-05-08 16:03 1.7M
20260508T12Z_MSC_GDPS_SoilTemp_DBS-0to10cm_LatLon0.15_PT024H.grib2 2026-05-08 16:03 499K
20260508T12Z_MSC_GDPS_SoilTemp_Sfc_LatLon0.15_PT024H.grib2 2026-05-08 16:03 565K
20260508T12Z_MSC_GDPS_SoilVolumetricIceContent_Sfc_LatLon0.15_PT024H.grib2 2026-05-08 16:03 180K
20260508T12Z_MSC_GDPS_SoilVolumetricWaterContent_DBS-0to10cm_LatLon0.15_PT024H.grib2 2026-05-08 16:03 598K
20260508T12Z_MSC_GDPS_SoilVolumetricWaterContent_DBS-0to1cm_LatLon0.15_PT024H.grib2 2026-05-08 16:03 646K
20260508T12Z_MSC_GDPS_SpecificHumidity_AGL-120m_LatLon0.15_PT024H.grib2 2026-05-08 16:03 1.1M
20260508T12Z_MSC_GDPS_SpecificHumidity_AGL-2m_LatLon0.15_PT024H.grib2 2026-05-08 16:03 1.2M
20260508T12Z_MSC_GDPS_SpecificHumidity_AGL-40m_LatLon0.15_PT024H.grib2 2026-05-08 16:03 1.1M
20260508T12Z_MSC_GDPS_SpecificHumidity_AGL-80m_LatLon0.15_PT024H.grib2 2026-05-08 16:03 1.1M
20260508T12Z_MSC_GDPS_SpecificHumidity_IsbL-0001_LatLon0.15_PT024H.grib2 2026-05-08 16:03 1.4M
20260508T12Z_MSC_GDPS_SpecificHumidity_IsbL-0005_LatLon0.15_PT024H.grib2 2026-05-08 16:03 1.3M
20260508T12Z_MSC_GDPS_SpecificHumidity_IsbL-0010_LatLon0.15_PT024H.grib2 2026-05-08 16:03 1.4M
20260508T12Z_MSC_GDPS_SpecificHumidity_IsbL-0020_LatLon0.15_PT024H.grib2 2026-05-08 16:03 1.4M
20260508T12Z_MSC_GDPS_SpecificHumidity_IsbL-0030_LatLon0.15_PT024H.grib2 2026-05-08 16:03 1.3M
20260508T12Z_MSC_GDPS_SpecificHumidity_IsbL-0050_LatLon0.15_PT024H.grib2 2026-05-08 16:03 1.4M
20260508T12Z_MSC_GDPS_SpecificHumidity_IsbL-0100_LatLon0.15_PT024H.grib2 2026-05-08 16:03 1.3M
20260508T12Z_MSC_GDPS_SpecificHumidity_IsbL-0150_LatLon0.15_PT024H.grib2 2026-05-08 16:03 1.4M
20260508T12Z_MSC_GDPS_SpecificHumidity_IsbL-0175_LatLon0.15_PT024H.grib2 2026-05-08 16:03 1.3M
20260508T12Z_MSC_GDPS_SpecificHumidity_IsbL-0200_LatLon0.15_PT024H.grib2 2026-05-08 16:03 1.3M
20260508T12Z_MSC_GDPS_SpecificHumidity_IsbL-0225_LatLon0.15_PT024H.grib2 2026-05-08 16:03 1.3M
20260508T12Z_MSC_GDPS_SpecificHumidity_IsbL-0250_LatLon0.15_PT024H.grib2 2026-05-08 16:03 1.2M
20260508T12Z_MSC_GDPS_SpecificHumidity_IsbL-0275_LatLon0.15_PT024H.grib2 2026-05-08 16:03 1.4M
20260508T12Z_MSC_GDPS_SpecificHumidity_IsbL-0300_LatLon0.15_PT024H.grib2 2026-05-08 16:03 1.3M
20260508T12Z_MSC_GDPS_SpecificHumidity_IsbL-0350_LatLon0.15_PT024H.grib2 2026-05-08 16:03 1.3M
20260508T12Z_MSC_GDPS_SpecificHumidity_IsbL-0400_LatLon0.15_PT024H.grib2 2026-05-08 16:03 1.5M
20260508T12Z_MSC_GDPS_SpecificHumidity_IsbL-0450_LatLon0.15_PT024H.grib2 2026-05-08 16:03 1.3M
20260508T12Z_MSC_GDPS_SpecificHumidity_IsbL-0500_LatLon0.15_PT024H.grib2 2026-05-08 16:03 1.5M
20260508T12Z_MSC_GDPS_SpecificHumidity_IsbL-0550_LatLon0.15_PT024H.grib2 2026-05-08 16:03 1.6M
20260508T12Z_MSC_GDPS_SpecificHumidity_IsbL-0600_LatLon0.15_PT024H.grib2 2026-05-08 16:03 1.8M
20260508T12Z_MSC_GDPS_SpecificHumidity_IsbL-0650_LatLon0.15_PT024H.grib2 2026-05-08 16:03 1.5M
20260508T12Z_MSC_GDPS_SpecificHumidity_IsbL-0700_LatLon0.15_PT024H.grib2 2026-05-08 16:03 1.6M
20260508T12Z_MSC_GDPS_SpecificHumidity_IsbL-0750_LatLon0.15_PT024H.grib2 2026-05-08 16:03 1.7M
20260508T12Z_MSC_GDPS_SpecificHumidity_IsbL-0800_LatLon0.15_PT024H.grib2 2026-05-08 16:03 1.9M
20260508T12Z_MSC_GDPS_SpecificHumidity_IsbL-0850_LatLon0.15_PT024H.grib2 2026-05-08 16:03 2.0M
20260508T12Z_MSC_GDPS_SpecificHumidity_IsbL-0875_LatLon0.15_PT024H.grib2 2026-05-08 16:03 2.0M
20260508T12Z_MSC_GDPS_SpecificHumidity_IsbL-0900_LatLon0.15_PT024H.grib2 2026-05-08 16:03 1.6M
20260508T12Z_MSC_GDPS_SpecificHumidity_IsbL-0925_LatLon0.15_PT024H.grib2 2026-05-08 16:03 1.6M
20260508T12Z_MSC_GDPS_SpecificHumidity_IsbL-0950_LatLon0.15_PT024H.grib2 2026-05-08 16:03 1.6M
20260508T12Z_MSC_GDPS_SpecificHumidity_IsbL-0970_LatLon0.15_PT024H.grib2 2026-05-08 16:03 1.5M
20260508T12Z_MSC_GDPS_SpecificHumidity_IsbL-0985_LatLon0.15_PT024H.grib2 2026-05-08 16:03 1.5M
20260508T12Z_MSC_GDPS_SpecificHumidity_IsbL-1000_LatLon0.15_PT024H.grib2 2026-05-08 16:03 1.5M
20260508T12Z_MSC_GDPS_SpecificHumidity_IsbL-1015_LatLon0.15_PT024H.grib2 2026-05-08 16:03 1.5M
20260508T12Z_MSC_GDPS_SpecificHumidity_Sfc_LatLon0.15_PT024H.grib2 2026-05-08 16:03 682K
20260508T12Z_MSC_GDPS_Thickness_IsbL-0850to0700_LatLon0.15_PT024H.grib2 2026-05-08 16:03 478K
20260508T12Z_MSC_GDPS_Thickness_IsbL-1000to0500_LatLon0.15_PT024H.grib2 2026-05-08 16:03 380K
20260508T12Z_MSC_GDPS_Thickness_IsbL-1000to0850_LatLon0.15_PT024H.grib2 2026-05-08 16:03 497K
20260508T12Z_MSC_GDPS_TotalCloudCover_Sfc_LatLon0.15_PT024H.grib2 2026-05-08 16:03 829K
20260508T12Z_MSC_GDPS_TotalTotalsIndex_Sfc_LatLon0.15_PT024H.grib2 2026-05-08 16:03 6.2M
20260508T12Z_MSC_GDPS_UVIndex-ClearSky_Sfc_LatLon0.15_PT024H.grib2 2026-05-08 16:50 1.0M
20260508T12Z_MSC_GDPS_UVIndex_Sfc_LatLon0.15_PT024H.grib2 2026-05-08 16:50 1.5M
20260508T12Z_MSC_GDPS_UpwardLongwaveRadiationFlux_NTAtm_LatLon0.15_PT024H.grib2 2026-05-08 16:03 845K
20260508T12Z_MSC_GDPS_VerticalVelocity_IsbL-0200_LatLon0.15_PT024H.grib2 2026-05-08 16:03 1.2M
20260508T12Z_MSC_GDPS_VerticalVelocity_IsbL-0250_LatLon0.15_PT024H.grib2 2026-05-08 16:03 1.1M
20260508T12Z_MSC_GDPS_VerticalVelocity_IsbL-0500_LatLon0.15_PT024H.grib2 2026-05-08 16:03 1.0M
20260508T12Z_MSC_GDPS_VerticalVelocity_IsbL-0600_LatLon0.15_PT024H.grib2 2026-05-08 16:03 1.1M
20260508T12Z_MSC_GDPS_VerticalVelocity_IsbL-0700_LatLon0.15_PT024H.grib2 2026-05-08 16:03 1.2M
20260508T12Z_MSC_GDPS_VerticalVelocity_IsbL-0850_LatLon0.15_PT024H.grib2 2026-05-08 16:03 1.3M
20260508T12Z_MSC_GDPS_WindChill_Sfc_LatLon0.15_PT024H.grib2 2026-05-08 16:03 5.3M
20260508T12Z_MSC_GDPS_WindDir_AGL-10m_LatLon0.15_PT024H.grib2 2026-05-08 16:03 1.3M
20260508T12Z_MSC_GDPS_WindDir_AGL-120m_LatLon0.15_PT024H.grib2 2026-05-08 16:03 1.3M
20260508T12Z_MSC_GDPS_WindDir_AGL-40m_LatLon0.15_PT024H.grib2 2026-05-08 16:03 1.3M
20260508T12Z_MSC_GDPS_WindDir_AGL-80m_LatLon0.15_PT024H.grib2 2026-05-08 16:03 1.3M
20260508T12Z_MSC_GDPS_WindDir_IsbL-0001_LatLon0.15_PT024H.grib2 2026-05-08 16:03 663K
20260508T12Z_MSC_GDPS_WindDir_IsbL-0005_LatLon0.15_PT024H.grib2 2026-05-08 16:03 838K
20260508T12Z_MSC_GDPS_WindDir_IsbL-0010_LatLon0.15_PT024H.grib2 2026-05-08 16:03 849K
20260508T12Z_MSC_GDPS_WindDir_IsbL-0020_LatLon0.15_PT024H.grib2 2026-05-08 16:03 962K
20260508T12Z_MSC_GDPS_WindDir_IsbL-0030_LatLon0.15_PT024H.grib2 2026-05-08 16:03 953K
20260508T12Z_MSC_GDPS_WindDir_IsbL-0050_LatLon0.15_PT024H.grib2 2026-05-08 16:03 956K
20260508T12Z_MSC_GDPS_WindDir_IsbL-0100_LatLon0.15_PT024H.grib2 2026-05-08 16:03 1.0M
20260508T12Z_MSC_GDPS_WindDir_IsbL-0150_LatLon0.15_PT024H.grib2 2026-05-08 16:03 1.0M
20260508T12Z_MSC_GDPS_WindDir_IsbL-0175_LatLon0.15_PT024H.grib2 2026-05-08 16:03 1.1M
20260508T12Z_MSC_GDPS_WindDir_IsbL-0200_LatLon0.15_PT024H.grib2 2026-05-08 16:03 1.1M
20260508T12Z_MSC_GDPS_WindDir_IsbL-0225_LatLon0.15_PT024H.grib2 2026-05-08 16:03 1.1M
20260508T12Z_MSC_GDPS_WindDir_IsbL-0250_LatLon0.15_PT024H.grib2 2026-05-08 16:03 1.1M
20260508T12Z_MSC_GDPS_WindDir_IsbL-0275_LatLon0.15_PT024H.grib2 2026-05-08 16:03 1.2M
20260508T12Z_MSC_GDPS_WindDir_IsbL-0300_LatLon0.15_PT024H.grib2 2026-05-08 16:03 1.2M
20260508T12Z_MSC_GDPS_WindDir_IsbL-0350_LatLon0.15_PT024H.grib2 2026-05-08 16:03 1.2M
20260508T12Z_MSC_GDPS_WindDir_IsbL-0400_LatLon0.15_PT024H.grib2 2026-05-08 16:03 1.3M
20260508T12Z_MSC_GDPS_WindDir_IsbL-0450_LatLon0.15_PT024H.grib2 2026-05-08 16:03 1.3M
20260508T12Z_MSC_GDPS_WindDir_IsbL-0500_LatLon0.15_PT024H.grib2 2026-05-08 16:03 1.4M
20260508T12Z_MSC_GDPS_WindDir_IsbL-0550_LatLon0.15_PT024H.grib2 2026-05-08 16:03 1.4M
20260508T12Z_MSC_GDPS_WindDir_IsbL-0600_LatLon0.15_PT024H.grib2 2026-05-08 16:03 1.4M
20260508T12Z_MSC_GDPS_WindDir_IsbL-0650_LatLon0.15_PT024H.grib2 2026-05-08 16:03 1.5M
20260508T12Z_MSC_GDPS_WindDir_IsbL-0700_LatLon0.15_PT024H.grib2 2026-05-08 16:03 1.6M
20260508T12Z_MSC_GDPS_WindDir_IsbL-0750_LatLon0.15_PT024H.grib2 2026-05-08 16:03 1.7M
20260508T12Z_MSC_GDPS_WindDir_IsbL-0800_LatLon0.15_PT024H.grib2 2026-05-08 16:03 1.8M
20260508T12Z_MSC_GDPS_WindDir_IsbL-0850_LatLon0.15_PT024H.grib2 2026-05-08 16:03 1.9M
20260508T12Z_MSC_GDPS_WindDir_IsbL-0875_LatLon0.15_PT024H.grib2 2026-05-08 16:03 1.9M
20260508T12Z_MSC_GDPS_WindDir_IsbL-0900_LatLon0.15_PT024H.grib2 2026-05-08 16:03 1.9M
20260508T12Z_MSC_GDPS_WindDir_IsbL-0925_LatLon0.15_PT024H.grib2 2026-05-08 16:03 1.9M
20260508T12Z_MSC_GDPS_WindDir_IsbL-0950_LatLon0.15_PT024H.grib2 2026-05-08 16:03 1.9M
20260508T12Z_MSC_GDPS_WindDir_IsbL-0970_LatLon0.15_PT024H.grib2 2026-05-08 16:03 1.9M
20260508T12Z_MSC_GDPS_WindDir_IsbL-0985_LatLon0.15_PT024H.grib2 2026-05-08 16:03 2.0M
20260508T12Z_MSC_GDPS_WindDir_IsbL-1000_LatLon0.15_PT024H.grib2 2026-05-08 16:03 2.0M
20260508T12Z_MSC_GDPS_WindDir_IsbL-1015_LatLon0.15_PT024H.grib2 2026-05-08 16:03 2.0M
20260508T12Z_MSC_GDPS_WindGust-Max_AGL-10m_LatLon0.15_PT024H.grib2 2026-05-08 16:03 2.2M
20260508T12Z_MSC_GDPS_WindGust-Min_AGL-10m_LatLon0.15_PT024H.grib2 2026-05-08 16:03 2.1M
20260508T12Z_MSC_GDPS_WindGust_AGL-10m_LatLon0.15_PT024H.grib2 2026-05-08 16:03 2.1M
20260508T12Z_MSC_GDPS_WindSpeed_AGL-10m_LatLon0.15_PT024H.grib2 2026-05-08 16:03 1.1M
20260508T12Z_MSC_GDPS_WindSpeed_AGL-120m_LatLon0.15_PT024H.grib2 2026-05-08 16:03 1.2M
20260508T12Z_MSC_GDPS_WindSpeed_AGL-40m_LatLon0.15_PT024H.grib2 2026-05-08 16:03 1.2M
20260508T12Z_MSC_GDPS_WindSpeed_AGL-80m_LatLon0.15_PT024H.grib2 2026-05-08 16:03 1.2M
20260508T12Z_MSC_GDPS_WindSpeed_IsbL-0001_LatLon0.15_PT024H.grib2 2026-05-08 16:03 657K
20260508T12Z_MSC_GDPS_WindSpeed_IsbL-0005_LatLon0.15_PT024H.grib2 2026-05-08 16:03 709K
20260508T12Z_MSC_GDPS_WindSpeed_IsbL-0010_LatLon0.15_PT024H.grib2 2026-05-08 16:03 641K
20260508T12Z_MSC_GDPS_WindSpeed_IsbL-0020_LatLon0.15_PT024H.grib2 2026-05-08 16:03 679K
20260508T12Z_MSC_GDPS_WindSpeed_IsbL-0030_LatLon0.15_PT024H.grib2 2026-05-08 16:03 884K
20260508T12Z_MSC_GDPS_WindSpeed_IsbL-0050_LatLon0.15_PT024H.grib2 2026-05-08 16:03 916K
20260508T12Z_MSC_GDPS_WindSpeed_IsbL-0100_LatLon0.15_PT024H.grib2 2026-05-08 16:03 1.1M
20260508T12Z_MSC_GDPS_WindSpeed_IsbL-0150_LatLon0.15_PT024H.grib2 2026-05-08 16:03 1.0M
20260508T12Z_MSC_GDPS_WindSpeed_IsbL-0175_LatLon0.15_PT024H.grib2 2026-05-08 16:03 1.0M
20260508T12Z_MSC_GDPS_WindSpeed_IsbL-0200_LatLon0.15_PT024H.grib2 2026-05-08 16:03 1.1M
20260508T12Z_MSC_GDPS_WindSpeed_IsbL-0225_LatLon0.15_PT024H.grib2 2026-05-08 16:03 1.1M
20260508T12Z_MSC_GDPS_WindSpeed_IsbL-0250_LatLon0.15_PT024H.grib2 2026-05-08 16:03 1.1M
20260508T12Z_MSC_GDPS_WindSpeed_IsbL-0275_LatLon0.15_PT024H.grib2 2026-05-08 16:03 1.1M
20260508T12Z_MSC_GDPS_WindSpeed_IsbL-0300_LatLon0.15_PT024H.grib2 2026-05-08 16:03 1.1M
20260508T12Z_MSC_GDPS_WindSpeed_IsbL-0350_LatLon0.15_PT024H.grib2 2026-05-08 16:03 1.1M
20260508T12Z_MSC_GDPS_WindSpeed_IsbL-0400_LatLon0.15_PT024H.grib2 2026-05-08 16:03 1.1M
20260508T12Z_MSC_GDPS_WindSpeed_IsbL-0450_LatLon0.15_PT024H.grib2 2026-05-08 16:03 1.1M
20260508T12Z_MSC_GDPS_WindSpeed_IsbL-0500_LatLon0.15_PT024H.grib2 2026-05-08 16:03 1.1M
20260508T12Z_MSC_GDPS_WindSpeed_IsbL-0550_LatLon0.15_PT024H.grib2 2026-05-08 16:03 1.1M
20260508T12Z_MSC_GDPS_WindSpeed_IsbL-0600_LatLon0.15_PT024H.grib2 2026-05-08 16:03 1.4M
20260508T12Z_MSC_GDPS_WindSpeed_IsbL-0650_LatLon0.15_PT024H.grib2 2026-05-08 16:03 1.5M
20260508T12Z_MSC_GDPS_WindSpeed_IsbL-0700_LatLon0.15_PT024H.grib2 2026-05-08 16:03 1.5M
20260508T12Z_MSC_GDPS_WindSpeed_IsbL-0750_LatLon0.15_PT024H.grib2 2026-05-08 16:03 1.6M
20260508T12Z_MSC_GDPS_WindSpeed_IsbL-0800_LatLon0.15_PT024H.grib2 2026-05-08 16:03 1.7M
20260508T12Z_MSC_GDPS_WindSpeed_IsbL-0850_LatLon0.15_PT024H.grib2 2026-05-08 16:03 1.8M
20260508T12Z_MSC_GDPS_WindSpeed_IsbL-0875_LatLon0.15_PT024H.grib2 2026-05-08 16:03 1.8M
20260508T12Z_MSC_GDPS_WindSpeed_IsbL-0900_LatLon0.15_PT024H.grib2 2026-05-08 16:03 1.8M
20260508T12Z_MSC_GDPS_WindSpeed_IsbL-0925_LatLon0.15_PT024H.grib2 2026-05-08 16:03 1.8M
20260508T12Z_MSC_GDPS_WindSpeed_IsbL-0950_LatLon0.15_PT024H.grib2 2026-05-08 16:03 1.8M
20260508T12Z_MSC_GDPS_WindSpeed_IsbL-0970_LatLon0.15_PT024H.grib2 2026-05-08 16:03 1.9M
20260508T12Z_MSC_GDPS_WindSpeed_IsbL-0985_LatLon0.15_PT024H.grib2 2026-05-08 16:03 1.9M
20260508T12Z_MSC_GDPS_WindSpeed_IsbL-1000_LatLon0.15_PT024H.grib2 2026-05-08 16:03 1.9M
20260508T12Z_MSC_GDPS_WindSpeed_IsbL-1015_LatLon0.15_PT024H.grib2 2026-05-08 16:03 1.8M
20260508T12Z_MSC_GDPS_WindU_AGL-10m_LatLon0.15_PT024H.grib2 2026-05-08 16:03 1.3M
20260508T12Z_MSC_GDPS_WindU_AGL-120m_LatLon0.15_PT024H.grib2 2026-05-08 16:03 1.0M
20260508T12Z_MSC_GDPS_WindU_AGL-40m_LatLon0.15_PT024H.grib2 2026-05-08 16:03 962K
20260508T12Z_MSC_GDPS_WindU_AGL-80m_LatLon0.15_PT024H.grib2 2026-05-08 16:03 1.0M
20260508T12Z_MSC_GDPS_WindU_IsbL-0001_LatLon0.15_PT024H.grib2 2026-05-08 16:03 510K
20260508T12Z_MSC_GDPS_WindU_IsbL-0005_LatLon0.15_PT024H.grib2 2026-05-08 16:03 705K
20260508T12Z_MSC_GDPS_WindU_IsbL-0010_LatLon0.15_PT024H.grib2 2026-05-08 16:03 718K
20260508T12Z_MSC_GDPS_WindU_IsbL-0020_LatLon0.15_PT024H.grib2 2026-05-08 16:03 745K
20260508T12Z_MSC_GDPS_WindU_IsbL-0030_LatLon0.15_PT024H.grib2 2026-05-08 16:03 755K
20260508T12Z_MSC_GDPS_WindU_IsbL-0050_LatLon0.15_PT024H.grib2 2026-05-08 16:03 777K
20260508T12Z_MSC_GDPS_WindU_IsbL-0100_LatLon0.15_PT024H.grib2 2026-05-08 16:03 931K
20260508T12Z_MSC_GDPS_WindU_IsbL-0150_LatLon0.15_PT024H.grib2 2026-05-08 16:03 1.0M
20260508T12Z_MSC_GDPS_WindU_IsbL-0175_LatLon0.15_PT024H.grib2 2026-05-08 16:03 1.0M
20260508T12Z_MSC_GDPS_WindU_IsbL-0200_LatLon0.15_PT024H.grib2 2026-05-08 16:03 849K
20260508T12Z_MSC_GDPS_WindU_IsbL-0225_LatLon0.15_PT024H.grib2 2026-05-08 16:03 860K
20260508T12Z_MSC_GDPS_WindU_IsbL-0250_LatLon0.15_PT024H.grib2 2026-05-08 16:03 864K
20260508T12Z_MSC_GDPS_WindU_IsbL-0275_LatLon0.15_PT024H.grib2 2026-05-08 16:03 892K
20260508T12Z_MSC_GDPS_WindU_IsbL-0300_LatLon0.15_PT024H.grib2 2026-05-08 16:03 885K
20260508T12Z_MSC_GDPS_WindU_IsbL-0350_LatLon0.15_PT024H.grib2 2026-05-08 16:03 899K
20260508T12Z_MSC_GDPS_WindU_IsbL-0400_LatLon0.15_PT024H.grib2 2026-05-08 16:03 1.1M
20260508T12Z_MSC_GDPS_WindU_IsbL-0450_LatLon0.15_PT024H.grib2 2026-05-08 16:03 1.1M
20260508T12Z_MSC_GDPS_WindU_IsbL-0500_LatLon0.15_PT024H.grib2 2026-05-08 16:03 1.1M
20260508T12Z_MSC_GDPS_WindU_IsbL-0550_LatLon0.15_PT024H.grib2 2026-05-08 16:03 1.1M
20260508T12Z_MSC_GDPS_WindU_IsbL-0600_LatLon0.15_PT024H.grib2 2026-05-08 16:03 1.2M
20260508T12Z_MSC_GDPS_WindU_IsbL-0650_LatLon0.15_PT024H.grib2 2026-05-08 16:03 1.2M
20260508T12Z_MSC_GDPS_WindU_IsbL-0700_LatLon0.15_PT024H.grib2 2026-05-08 16:03 1.2M
20260508T12Z_MSC_GDPS_WindU_IsbL-0750_LatLon0.15_PT024H.grib2 2026-05-08 16:03 1.3M
20260508T12Z_MSC_GDPS_WindU_IsbL-0800_LatLon0.15_PT024H.grib2 2026-05-08 16:03 1.4M
20260508T12Z_MSC_GDPS_WindU_IsbL-0850_LatLon0.15_PT024H.grib2 2026-05-08 16:03 1.4M
20260508T12Z_MSC_GDPS_WindU_IsbL-0875_LatLon0.15_PT024H.grib2 2026-05-08 16:03 1.5M
20260508T12Z_MSC_GDPS_WindU_IsbL-0900_LatLon0.15_PT024H.grib2 2026-05-08 16:03 1.5M
20260508T12Z_MSC_GDPS_WindU_IsbL-0925_LatLon0.15_PT024H.grib2 2026-05-08 16:03 1.5M
20260508T12Z_MSC_GDPS_WindU_IsbL-0950_LatLon0.15_PT024H.grib2 2026-05-08 16:03 1.4M
20260508T12Z_MSC_GDPS_WindU_IsbL-0970_LatLon0.15_PT024H.grib2 2026-05-08 16:03 1.4M
20260508T12Z_MSC_GDPS_WindU_IsbL-0985_LatLon0.15_PT024H.grib2 2026-05-08 16:03 1.4M
20260508T12Z_MSC_GDPS_WindU_IsbL-1000_LatLon0.15_PT024H.grib2 2026-05-08 16:03 1.4M
20260508T12Z_MSC_GDPS_WindU_IsbL-1015_LatLon0.15_PT024H.grib2 2026-05-08 16:03 1.3M
20260508T12Z_MSC_GDPS_WindV_AGL-10m_LatLon0.15_PT024H.grib2 2026-05-08 16:03 1.3M
20260508T12Z_MSC_GDPS_WindV_AGL-120m_LatLon0.15_PT024H.grib2 2026-05-08 16:03 1.0M
20260508T12Z_MSC_GDPS_WindV_AGL-40m_LatLon0.15_PT024H.grib2 2026-05-08 16:03 963K
20260508T12Z_MSC_GDPS_WindV_AGL-80m_LatLon0.15_PT024H.grib2 2026-05-08 16:03 1.0M
20260508T12Z_MSC_GDPS_WindV_IsbL-0001_LatLon0.15_PT024H.grib2 2026-05-08 16:03 726K
20260508T12Z_MSC_GDPS_WindV_IsbL-0005_LatLon0.15_PT024H.grib2 2026-05-08 16:03 782K
20260508T12Z_MSC_GDPS_WindV_IsbL-0010_LatLon0.15_PT024H.grib2 2026-05-08 16:03 809K
20260508T12Z_MSC_GDPS_WindV_IsbL-0020_LatLon0.15_PT024H.grib2 2026-05-08 16:03 945K
20260508T12Z_MSC_GDPS_WindV_IsbL-0030_LatLon0.15_PT024H.grib2 2026-05-08 16:03 952K
20260508T12Z_MSC_GDPS_WindV_IsbL-0050_LatLon0.15_PT024H.grib2 2026-05-08 16:03 912K
20260508T12Z_MSC_GDPS_WindV_IsbL-0100_LatLon0.15_PT024H.grib2 2026-05-08 16:03 861K
20260508T12Z_MSC_GDPS_WindV_IsbL-0150_LatLon0.15_PT024H.grib2 2026-05-08 16:03 1.0M
20260508T12Z_MSC_GDPS_WindV_IsbL-0175_LatLon0.15_PT024H.grib2 2026-05-08 16:03 819K
20260508T12Z_MSC_GDPS_WindV_IsbL-0200_LatLon0.15_PT024H.grib2 2026-05-08 16:03 906K
20260508T12Z_MSC_GDPS_WindV_IsbL-0225_LatLon0.15_PT024H.grib2 2026-05-08 16:03 915K
20260508T12Z_MSC_GDPS_WindV_IsbL-0250_LatLon0.15_PT024H.grib2 2026-05-08 16:03 917K
20260508T12Z_MSC_GDPS_WindV_IsbL-0275_LatLon0.15_PT024H.grib2 2026-05-08 16:03 945K
20260508T12Z_MSC_GDPS_WindV_IsbL-0300_LatLon0.15_PT024H.grib2 2026-05-08 16:03 937K
20260508T12Z_MSC_GDPS_WindV_IsbL-0350_LatLon0.15_PT024H.grib2 2026-05-08 16:03 950K
20260508T12Z_MSC_GDPS_WindV_IsbL-0400_LatLon0.15_PT024H.grib2 2026-05-08 16:03 894K
20260508T12Z_MSC_GDPS_WindV_IsbL-0450_LatLon0.15_PT024H.grib2 2026-05-08 16:03 891K
20260508T12Z_MSC_GDPS_WindV_IsbL-0500_LatLon0.15_PT024H.grib2 2026-05-08 16:03 1.1M
20260508T12Z_MSC_GDPS_WindV_IsbL-0550_LatLon0.15_PT024H.grib2 2026-05-08 16:03 1.1M
20260508T12Z_MSC_GDPS_WindV_IsbL-0600_LatLon0.15_PT024H.grib2 2026-05-08 16:03 1.1M
20260508T12Z_MSC_GDPS_WindV_IsbL-0650_LatLon0.15_PT024H.grib2 2026-05-08 16:03 1.2M
20260508T12Z_MSC_GDPS_WindV_IsbL-0700_LatLon0.15_PT024H.grib2 2026-05-08 16:03 1.2M
20260508T12Z_MSC_GDPS_WindV_IsbL-0750_LatLon0.15_PT024H.grib2 2026-05-08 16:03 1.3M
20260508T12Z_MSC_GDPS_WindV_IsbL-0800_LatLon0.15_PT024H.grib2 2026-05-08 16:03 1.4M
20260508T12Z_MSC_GDPS_WindV_IsbL-0850_LatLon0.15_PT024H.grib2 2026-05-08 16:03 1.4M
20260508T12Z_MSC_GDPS_WindV_IsbL-0875_LatLon0.15_PT024H.grib2 2026-05-08 16:03 1.4M
20260508T12Z_MSC_GDPS_WindV_IsbL-0900_LatLon0.15_PT024H.grib2 2026-05-08 16:03 1.5M
20260508T12Z_MSC_GDPS_WindV_IsbL-0925_LatLon0.15_PT024H.grib2 2026-05-08 16:03 1.4M
20260508T12Z_MSC_GDPS_WindV_IsbL-0950_LatLon0.15_PT024H.grib2 2026-05-08 16:03 1.4M
20260508T12Z_MSC_GDPS_WindV_IsbL-0970_LatLon0.15_PT024H.grib2 2026-05-08 16:03 1.4M
20260508T12Z_MSC_GDPS_WindV_IsbL-0985_LatLon0.15_PT024H.grib2 2026-05-08 16:03 1.4M
20260508T12Z_MSC_GDPS_WindV_IsbL-1000_LatLon0.15_PT024H.grib2 2026-05-08 16:03 1.4M
20260508T12Z_MSC_GDPS_WindV_IsbL-1015_LatLon0.15_PT024H.grib2 2026-05-08 16:03 1.3M